Year,Month,Day,Hour,Minute,Value (Times are PST for temperature in C)
2017,06,16,00,00,11.50
2017,06,16,00,01,11.50
2017,06,16,00,02,11.50
2017,06,16,00,03,11.40
2017,06,16,00,04,11.40
2017,06,16,00,05,11.40
2017,06,16,00,06,11.40
2017,06,16,00,07,11.40
2017,06,16,00,08,11.40
2017,06,16,00,09,11.40
2017,06,16,00,10,11.40
2017,06,16,00,11,11.40
2017,06,16,00,12,11.40
2017,06,16,00,13,11.40
2017,06,16,00,14,11.40
2017,06,16,00,15,11.40
2017,06,16,00,16,11.40
2017,06,16,00,17,11.40
2017,06,16,00,18,11.40
2017,06,16,00,19,11.40
2017,06,16,00,20,11.40
2017,06,16,00,21,11.40
2017,06,16,00,22,11.40
2017,06,16,00,23,11.40
2017,06,16,00,24,11.40
2017,06,16,00,25,11.40
2017,06,16,00,26,11.40
2017,06,16,00,27,11.40
2017,06,16,00,28,11.40
2017,06,16,00,29,11.40
2017,06,16,00,30,11.40
2017,06,16,00,31,11.40
2017,06,16,00,32,11.40
2017,06,16,00,33,11.40
2017,06,16,00,34,11.50
2017,06,16,00,35,11.50
2017,06,16,00,36,11.50
2017,06,16,00,37,11.50
2017,06,16,00,38,11.50
2017,06,16,00,39,11.40
2017,06,16,00,40,11.40
2017,06,16,00,41,11.40
2017,06,16,00,42,11.40
2017,06,16,00,43,11.40
2017,06,16,00,44,11.40
2017,06,16,00,45,11.40
2017,06,16,00,46,11.40
2017,06,16,00,47,11.40
2017,06,16,00,48,11.30
2017,06,16,00,49,11.30
2017,06,16,00,50,11.30
2017,06,16,00,51,11.30
2017,06,16,00,52,11.30
2017,06,16,00,53,11.30
2017,06,16,00,54,11.30
2017,06,16,00,55,11.30
2017,06,16,00,56,11.30
2017,06,16,00,57,11.30
2017,06,16,00,58,11.30
2017,06,16,00,59,11.30
2017,06,16,01,00,11.30
2017,06,16,01,01,11.30
2017,06,16,01,02,11.20
2017,06,16,01,03,11.20
2017,06,16,01,04,11.20
2017,06,16,01,05,11.20
2017,06,16,01,06,11.20
2017,06,16,01,07,11.20
2017,06,16,01,08,11.20
2017,06,16,01,09,11.20
2017,06,16,01,10,11.20
2017,06,16,01,11,11.20
2017,06,16,01,12,11.20
2017,06,16,01,13,11.20
2017,06,16,01,14,11.20
2017,06,16,01,15,11.20
2017,06,16,01,16,11.10
2017,06,16,01,17,11.10
2017,06,16,01,18,11.10
2017,06,16,01,19,11.10
2017,06,16,01,20,11.10
2017,06,16,01,21,11.10
2017,06,16,01,22,11.10
2017,06,16,01,23,11.00
2017,06,16,01,24,11.00
2017,06,16,01,25,10.90
2017,06,16,01,26,10.90
2017,06,16,01,27,10.90
2017,06,16,01,28,10.90
2017,06,16,01,29,10.90
2017,06,16,01,30,10.90
2017,06,16,01,31,10.90
2017,06,16,01,32,10.90
2017,06,16,01,33,10.90
2017,06,16,01,34,10.90
2017,06,16,01,35,10.90
2017,06,16,01,36,10.90
2017,06,16,01,37,10.90
2017,06,16,01,38,10.90
2017,06,16,01,39,10.90
2017,06,16,01,40,10.90
2017,06,16,01,41,10.90
2017,06,16,01,42,11.00
2017,06,16,01,43,11.00
2017,06,16,01,44,11.00
2017,06,16,01,45,11.00
2017,06,16,01,46,11.00
2017,06,16,01,47,11.00
2017,06,16,01,48,11.00
2017,06,16,01,49,11.10
2017,06,16,01,50,11.10
2017,06,16,01,51,11.10
2017,06,16,01,52,11.10
2017,06,16,01,53,11.20
2017,06,16,01,54,11.20
2017,06,16,01,55,11.20
2017,06,16,01,56,11.20
2017,06,16,01,57,11.20
2017,06,16,01,58,11.20
2017,06,16,01,59,11.20
2017,06,16,02,00,11.20
2017,06,16,02,01,11.30
2017,06,16,02,02,11.30
2017,06,16,02,03,11.30
2017,06,16,02,04,11.30
2017,06,16,02,05,11.30
2017,06,16,02,06,11.30
2017,06,16,02,07,11.30
2017,06,16,02,08,11.30
2017,06,16,02,09,11.30
2017,06,16,02,10,11.30
2017,06,16,02,11,11.40
2017,06,16,02,12,11.40
2017,06,16,02,13,11.40
2017,06,16,02,14,11.40
2017,06,16,02,15,11.40
2017,06,16,02,16,11.30
2017,06,16,02,17,11.30
2017,06,16,02,18,11.20
2017,06,16,02,19,11.20
2017,06,16,02,20,11.10
2017,06,16,02,21,11.10
2017,06,16,02,22,11.10
2017,06,16,02,23,11.10
2017,06,16,02,24,11.10
2017,06,16,02,25,11.10
2017,06,16,02,26,11.00
2017,06,16,02,27,11.00
2017,06,16,02,28,11.00
2017,06,16,02,29,11.00
2017,06,16,02,30,11.00
2017,06,16,02,31,11.10
2017,06,16,02,32,11.10
2017,06,16,02,33,11.10
2017,06,16,02,34,11.10
2017,06,16,02,35,11.10
2017,06,16,02,36,11.00
2017,06,16,02,37,11.00
2017,06,16,02,38,10.90
2017,06,16,02,39,10.90
2017,06,16,02,40,10.90
2017,06,16,02,41,10.80
2017,06,16,02,42,10.80
2017,06,16,02,43,10.90
2017,06,16,02,44,10.90
2017,06,16,02,45,10.90
2017,06,16,02,46,10.90
2017,06,16,02,47,10.90
2017,06,16,02,48,10.80
2017,06,16,02,49,10.80
2017,06,16,02,50,10.80
2017,06,16,02,51,10.80
2017,06,16,02,52,10.80
2017,06,16,02,53,10.70
2017,06,16,02,54,10.70
2017,06,16,02,55,10.70
2017,06,16,02,56,10.70
2017,06,16,02,57,10.80
2017,06,16,02,58,10.80
2017,06,16,02,59,10.80
2017,06,16,03,00,10.80
2017,06,16,03,01,10.80
2017,06,16,03,02,10.70
2017,06,16,03,03,10.70
2017,06,16,03,04,10.60
2017,06,16,03,05,10.60
2017,06,16,03,06,10.60
2017,06,16,03,07,10.50
2017,06,16,03,08,10.50
2017,06,16,03,09,10.50
2017,06,16,03,10,10.40
2017,06,16,03,11,10.30
2017,06,16,03,12,10.30
2017,06,16,03,13,10.30
2017,06,16,03,14,10.30
2017,06,16,03,15,10.30
2017,06,16,03,16,10.30
2017,06,16,03,17,10.30
2017,06,16,03,18,10.30
2017,06,16,03,19,10.30
2017,06,16,03,20,10.30
2017,06,16,03,21,10.30
2017,06,16,03,22,10.30
2017,06,16,03,23,10.30
2017,06,16,03,24,10.20
2017,06,16,03,25,10.20
2017,06,16,03,26,10.20
2017,06,16,03,27,10.20
2017,06,16,03,28,10.20
2017,06,16,03,29,10.20
2017,06,16,03,30,10.20
2017,06,16,03,31,10.20
2017,06,16,03,32,10.20
2017,06,16,03,33,10.20
2017,06,16,03,34,10.20
2017,06,16,03,35,10.10
2017,06,16,03,36,10.10
2017,06,16,03,37,10.10
2017,06,16,03,38,10.20
2017,06,16,03,39,10.20
2017,06,16,03,40,10.20
2017,06,16,03,41,10.20
2017,06,16,03,42,10.20
2017,06,16,03,43,10.20
2017,06,16,03,44,10.20
2017,06,16,03,45,10.20
2017,06,16,03,46,10.30
2017,06,16,03,47,10.30
2017,06,16,03,48,10.30
2017,06,16,03,49,10.30
2017,06,16,03,50,10.30
2017,06,16,03,51,10.30
2017,06,16,03,52,10.30
2017,06,16,03,53,10.30
2017,06,16,03,54,10.30
2017,06,16,03,55,10.30
2017,06,16,03,56,10.30
2017,06,16,03,57,10.20
2017,06,16,03,58,10.30
2017,06,16,03,59,10.30
2017,06,16,04,00,10.30
2017,06,16,04,01,10.30
2017,06,16,04,02,10.30
2017,06,16,04,03,10.30
2017,06,16,04,04,10.30
2017,06,16,04,05,10.30
2017,06,16,04,06,10.30
2017,06,16,04,07,10.30
2017,06,16,04,08,10.30
2017,06,16,04,09,10.30
2017,06,16,04,10,10.30
2017,06,16,04,11,10.30
2017,06,16,04,12,10.30
2017,06,16,04,13,10.30
2017,06,16,04,14,10.30
2017,06,16,04,15,10.30
2017,06,16,04,16,10.30
2017,06,16,04,17,10.30
2017,06,16,04,18,10.30
2017,06,16,04,19,10.30
2017,06,16,04,20,10.30
2017,06,16,04,21,10.30
2017,06,16,04,22,10.30
2017,06,16,04,23,10.30
2017,06,16,04,24,10.30
2017,06,16,04,25,10.30
2017,06,16,04,26,10.30
2017,06,16,04,27,10.30
2017,06,16,04,28,10.30
2017,06,16,04,29,10.30
2017,06,16,04,30,10.30
2017,06,16,04,31,10.30
2017,06,16,04,32,10.20
2017,06,16,04,33,10.20
2017,06,16,04,34,10.20
2017,06,16,04,35,10.20
2017,06,16,04,36,10.30
2017,06,16,04,37,10.30
2017,06,16,04,38,10.30
2017,06,16,04,39,10.20
2017,06,16,04,40,10.20
2017,06,16,04,41,10.20
2017,06,16,04,42,10.20
2017,06,16,04,43,10.20
2017,06,16,04,44,10.20
2017,06,16,04,45,10.20
2017,06,16,04,46,10.20
2017,06,16,04,47,10.30
2017,06,16,04,48,10.30
2017,06,16,04,49,10.30
2017,06,16,04,50,10.30
2017,06,16,04,51,10.30
2017,06,16,04,52,10.30
2017,06,16,04,53,10.30
2017,06,16,04,54,10.30
2017,06,16,04,55,10.30
2017,06,16,04,56,10.40
2017,06,16,04,57,10.40
2017,06,16,04,58,10.50
2017,06,16,04,59,10.60
2017,06,16,05,00,10.60
2017,06,16,05,01,10.60
2017,06,16,05,02,10.60
2017,06,16,05,03,10.50
2017,06,16,05,04,10.50
2017,06,16,05,05,10.50
2017,06,16,05,06,10.50
2017,06,16,05,07,10.40
2017,06,16,05,08,10.40
2017,06,16,05,09,10.40
2017,06,16,05,10,10.40
2017,06,16,05,11,10.40
2017,06,16,05,12,10.40
2017,06,16,05,13,10.50
2017,06,16,05,14,10.50
2017,06,16,05,15,10.60
2017,06,16,05,16,10.60
2017,06,16,05,17,10.60
2017,06,16,05,18,10.70
2017,06,16,05,19,10.70
2017,06,16,05,20,10.70
2017,06,16,05,21,10.70
2017,06,16,05,22,10.70
2017,06,16,05,23,10.70
2017,06,16,05,24,10.70
2017,06,16,05,25,10.70
2017,06,16,05,26,10.60
2017,06,16,05,27,10.70
2017,06,16,05,28,10.70
2017,06,16,05,29,10.70
2017,06,16,05,30,10.80
2017,06,16,05,31,10.80
2017,06,16,05,32,10.80
2017,06,16,05,33,10.80
2017,06,16,05,34,10.90
2017,06,16,05,35,10.80
2017,06,16,05,36,10.90
2017,06,16,05,37,10.90
2017,06,16,05,38,10.90
2017,06,16,05,39,11.00
2017,06,16,05,40,11.00
2017,06,16,05,41,11.10
2017,06,16,05,42,11.10
2017,06,16,05,43,11.10
2017,06,16,05,44,11.10
2017,06,16,05,45,11.10
2017,06,16,05,46,11.10
2017,06,16,05,47,11.10
2017,06,16,05,48,11.10
2017,06,16,05,49,11.10
2017,06,16,05,50,11.10
2017,06,16,05,51,11.10
2017,06,16,05,52,11.10
2017,06,16,05,53,11.10
2017,06,16,05,54,11.10
2017,06,16,05,55,11.10
2017,06,16,05,56,11.10
2017,06,16,05,57,11.10
2017,06,16,05,58,11.20
2017,06,16,05,59,11.20
2017,06,16,06,00,11.30
2017,06,16,06,01,11.30
2017,06,16,06,02,11.30
2017,06,16,06,03,11.30
2017,06,16,06,04,11.30
2017,06,16,06,05,11.30
2017,06,16,06,06,11.40
2017,06,16,06,07,11.40
2017,06,16,06,08,11.40
2017,06,16,06,09,11.40
2017,06,16,06,10,11.40
2017,06,16,06,11,11.50
2017,06,16,06,12,11.50
2017,06,16,06,13,11.50
2017,06,16,06,14,11.60
2017,06,16,06,15,11.60
2017,06,16,06,16,11.60
2017,06,16,06,17,11.60
2017,06,16,06,18,11.60
2017,06,16,06,19,11.60
2017,06,16,06,20,11.70
2017,06,16,06,21,11.70
2017,06,16,06,22,11.70
2017,06,16,06,23,11.70
2017,06,16,06,24,11.70
2017,06,16,06,25,11.70
2017,06,16,06,26,11.70
2017,06,16,06,27,11.70
2017,06,16,06,28,11.70
2017,06,16,06,29,11.80
2017,06,16,06,30,11.80
2017,06,16,06,31,11.80
2017,06,16,06,32,11.80
2017,06,16,06,33,11.80
2017,06,16,06,34,11.80
2017,06,16,06,35,11.90
2017,06,16,06,36,11.90
2017,06,16,06,37,11.90
2017,06,16,06,38,11.90
2017,06,16,06,39,11.90
2017,06,16,06,40,11.90
2017,06,16,06,41,11.90
2017,06,16,06,42,11.90
2017,06,16,06,43,11.90
2017,06,16,06,44,11.90
2017,06,16,06,45,11.90
2017,06,16,06,46,11.90
2017,06,16,06,47,12.00
2017,06,16,06,48,12.00
2017,06,16,06,49,12.00
2017,06,16,06,50,12.00
2017,06,16,06,51,12.00
2017,06,16,06,52,12.10
2017,06,16,06,53,12.10
2017,06,16,06,54,12.10
2017,06,16,06,55,12.10
2017,06,16,06,56,12.10
2017,06,16,06,57,12.10
2017,06,16,06,58,12.10
2017,06,16,06,59,12.10
2017,06,16,07,00,12.10
2017,06,16,07,01,12.10
2017,06,16,07,02,12.10
2017,06,16,07,03,12.10
2017,06,16,07,04,12.10
2017,06,16,07,05,12.10
2017,06,16,07,06,12.20
2017,06,16,07,07,12.20
2017,06,16,07,08,12.20
2017,06,16,07,09,12.20
2017,06,16,07,10,12.20
2017,06,16,07,11,12.20
2017,06,16,07,12,12.20
2017,06,16,07,13,12.20
2017,06,16,07,14,12.20
2017,06,16,07,15,12.20
2017,06,16,07,16,12.20
2017,06,16,07,17,12.20
2017,06,16,07,18,12.10
2017,06,16,07,19,12.10
2017,06,16,07,20,12.10
2017,06,16,07,21,12.10
2017,06,16,07,22,12.10
2017,06,16,07,23,12.10
2017,06,16,07,24,12.10
2017,06,16,07,25,12.10
2017,06,16,07,26,12.10
2017,06,16,07,27,12.10
2017,06,16,07,28,12.10
2017,06,16,07,29,12.10
2017,06,16,07,30,12.10
2017,06,16,07,31,12.10
2017,06,16,07,32,12.10
2017,06,16,07,33,12.10
2017,06,16,07,34,12.00
2017,06,16,07,35,11.90
2017,06,16,07,36,11.90
2017,06,16,07,37,11.90
2017,06,16,07,38,11.90
2017,06,16,07,39,11.90
2017,06,16,07,40,11.90
2017,06,16,07,41,12.00
2017,06,16,07,42,12.00
2017,06,16,07,43,11.90
2017,06,16,07,44,11.90
2017,06,16,07,45,12.00
2017,06,16,07,46,12.00
2017,06,16,07,47,11.90
2017,06,16,07,48,12.00
2017,06,16,07,49,12.00
2017,06,16,07,50,12.00
2017,06,16,07,51,12.00
2017,06,16,07,52,12.00
2017,06,16,07,53,12.00
2017,06,16,07,54,12.00
2017,06,16,07,55,12.00
2017,06,16,07,56,12.00
2017,06,16,07,57,12.00
2017,06,16,07,58,12.00
2017,06,16,07,59,12.00
2017,06,16,08,00,12.00
2017,06,16,08,01,12.00
2017,06,16,08,02,12.10
2017,06,16,08,03,12.10
2017,06,16,08,04,12.10
2017,06,16,08,05,12.10
2017,06,16,08,06,12.10
2017,06,16,08,07,12.10
2017,06,16,08,08,12.20
2017,06,16,08,09,12.20
2017,06,16,08,10,12.20
2017,06,16,08,11,12.20
2017,06,16,08,12,12.20
2017,06,16,08,13,12.20
2017,06,16,08,14,12.20
2017,06,16,08,15,12.20
2017,06,16,08,16,12.20
2017,06,16,08,17,12.20
2017,06,16,08,18,12.30
2017,06,16,08,19,12.30
2017,06,16,08,20,12.30
2017,06,16,08,21,12.30
2017,06,16,08,22,12.30
2017,06,16,08,23,12.30
2017,06,16,08,24,12.30
2017,06,16,08,25,12.40
2017,06,16,08,26,12.40
2017,06,16,08,27,12.40
2017,06,16,08,28,12.40
2017,06,16,08,29,12.40
2017,06,16,08,30,12.40
2017,06,16,08,31,12.50
2017,06,16,08,32,12.50
2017,06,16,08,33,12.50
2017,06,16,08,34,12.60
2017,06,16,08,35,12.60
2017,06,16,08,36,12.60
2017,06,16,08,37,12.60
2017,06,16,08,38,12.60
2017,06,16,08,39,12.70
2017,06,16,08,40,12.70
2017,06,16,08,41,12.70
2017,06,16,08,42,12.70
2017,06,16,08,43,12.70
2017,06,16,08,44,12.70
2017,06,16,08,45,12.70
2017,06,16,08,46,12.70
2017,06,16,08,47,12.80
2017,06,16,08,48,12.80
2017,06,16,08,49,12.80
2017,06,16,08,50,12.80
2017,06,16,08,51,12.80
2017,06,16,08,52,12.80
2017,06,16,08,53,12.80
2017,06,16,08,54,12.80
2017,06,16,08,55,12.80
2017,06,16,08,56,12.90
2017,06,16,08,57,12.90
2017,06,16,08,58,12.90
2017,06,16,08,59,12.90
2017,06,16,09,00,12.90
2017,06,16,09,01,12.90
2017,06,16,09,02,12.90
2017,06,16,09,03,12.90
2017,06,16,09,04,12.90
2017,06,16,09,05,12.90
2017,06,16,09,06,12.90
2017,06,16,09,07,12.90
2017,06,16,09,08,12.90
2017,06,16,09,09,12.90
2017,06,16,09,10,12.90
2017,06,16,09,11,12.90
2017,06,16,09,12,12.90
2017,06,16,09,13,12.90
2017,06,16,09,14,12.90
2017,06,16,09,15,12.90
2017,06,16,09,16,12.90
2017,06,16,09,17,12.90
2017,06,16,09,18,12.90
2017,06,16,23,44,13.70
2017,06,16,23,45,13.70
2017,06,16,23,46,13.70
2017,06,16,23,47,13.70
2017,06,16,23,48,13.70
2017,06,16,23,49,13.70
2017,06,16,23,50,13.70
2017,06,16,23,51,13.70
2017,06,16,23,52,13.70
2017,06,16,23,53,13.70
2017,06,16,23,54,13.70
2017,06,16,23,55,13.70
2017,06,16,23,56,13.70
2017,06,16,23,57,13.60
2017,06,16,23,58,13.60
2017,06,16,23,59,13.60
